Showing default

TIGER-8, 59120

Orbit data source: Space-Track

TIGER-8, 59120 is a payload satellite owned by OQ Tech (RW) in SSO that was launched on Mon, 04 Mar 2024 UTC via an FALCON 9 launch vehicle from the Air Force Western Test Range (AFWTR). Payload-class satellites include a variety of spacecraft equipped with specific instruments for various scientific and technological missions. These include communications satellites like Starlink; space stations such as the ISS; scientific satellites like the Hubble; Earth observation satellites from companies like Planet Labs, Umbra, and HawkEye 360; GPS; miniature CubeSats for education and research; and military/defense satellites.

Loading next visibility...
Identifier
59120, 2024-043Y
Orbit
SSO
Country
Flag of RWRW / RWA
Related business
Manufacturer
NanoAvionics
Mission
Operational Commercial Communications
Bus & Motor
CUBESAT 6U, Unknown motor
Mass
~10 kg wet, ~10 kg dry
Launch date (UTC)
2024-03-04 (3 years ago)
Launch vehicle
FALCON 9
Launch site
Air Force Western Test Range (AFWTR)
Object type
Payload
Rocket body
Debris
Shape & HBR
Box + 2 Pan, 0.2 m
Radar Cross Section
0.080 m², Medium (>0.1 m² and < 1m²)

Expand to show TLE details & history
Last TLE update: 13 hours ago

TLE from 13 hours ago
0 TIGER-8
1 59120U 24043Y   26254.40172861  .00007311  00000-0  15145-3 0  9999
2 59120  97.5645  46.5744 0005865 246.8866 113.1765 15.46062378141102
Epoch: 2026-09-11T09:38Z
TLE epoch observation values (Epoch: 2026-09-11T09:38:29.351Z)
Latitude
-0.00005°
Longitude
-88.4735°
Altitude
432.953 km
Speed
7.651 km/s
True Right ascension
03h 06m 17s
True Declination
0° 00' 00"
Sunlit
Object was in full shadow at epoch
Visualization orbit readout
Latitude
Unknown
Longitude
Unknown
Altitude
Unknown
Speed
Unknown
Apparent Right ascension
Unknown
Apparent Declination
Unknown
Sunlit
N/A
Visualization observer readout
Local Sidereal Time
14:53:02
Azimuth
Unknown
Elevation
Unknown
Doppler factor
Unknown
Orbital elements
Apogee altitude
429.187 km
Perigee altitude
421.206 km
Semi-major axis
6,803.333 km
Eccentricity
0.00059
Inclination
97.5645°
RAAN
46.5744°
Arg. of periapsis
246.8866°
True anomaly
113.23827°
Mean anomaly
113.1765°
Eccentric anomaly
113.20738°
Mean motion
3.86777 °/min
Orbital period
93.08 mins
BSTAR
0.00015145
Loading maneuver chart data...
Computing Atmospheric mass density...
Loading historical data...
Loading historical data...
Loading historical data...
Loading historical data...
Loading historical data...
Loading historical data...
Loading historical data...

Documentation

Showing up to 5 results
|